[[{"header":{"parameterUnit":"m.s-1","parameterCategory":1,"la1":30.2991,"la2":30.254,"lo1":-89.0895,"lo2":-89.0444,"dy":0.0017,"dx":0.0017,"nx":28,"ny":28,"refTime":"2024-06-17T03:00:00:Z","depth":0,"parameterNumber":2,"parameterNumberName":"U-component_of_WINDS"},"data":[0,0,0,0,0,0,0,0,0,0,0,0,0,0,0,0,0,0,0,0,0,0,0,0,0,0,0,0,0,0,0,0,0,0,0,0,0,0,0,0,0,0,0,0,0,0,0,0,0,0,0,0,0,0,0,0,0,0,-11.0639,-11.064,0,-11.0697,-11.0698,-11.0698,-11.0507,-11.0501,-11.0495,-11.049,-11.0546,-11.0552,-11.0559,0,0,0,0,0,0,0,0,0,0,0,0,0,-11.0358,-11.0364,-11.0639,-11.064,-11.064,-11.0697,-11.0698,-11.0699,-11.0508,-11.0501,-11.0494,-11.0487,-11.0544,-11.0552,-11.056,0,0,0,0,0,0,0,0,0,0,0,0,0,-11.0455,-11.0366,-11.0639,-11.0552,-11.0545,-11.0697,-11.0698,-11.0699,-11.0509,-11.0501,-11.0492,-11.0484,-11.0541,-11.0551,-11.0561,-11.0798,0,0,-11.0593,-11.0597,0,0,0,0,0,0,0,0,-11.0449,-11.0465,-11.0564,-11.0558,-11.0551,-11.0586,-11.0619,-11.0732,-11.0511,-11.0523,-11.049,-11.048,-11.0566,-11.0574,-11.0603,-11.0801,-11.0803,-11.0593,-11.06,-11.0604,-11.0607,0,0,0,0,0,0,0,-11.0443,-11.0461,-11.0662,-11.0566,-11.0558,-11.0509,-11.0513,-11.064,-11.0592,-11.0521,-11.0507,-11.0517,-11.056,-11.0594,-11.0603,-11.0804,-11.0593,-11.0602,-11.0609,-11.0613,-11.1196,-11.1205,0,0,0,0,0,0,-11.0448,-11.0457,-11.066,-11.0663,-11.0478,-11.0521,-11.0525,-11.0583,-11.059,-11.0583,-11.0524,-11.0508,-11.0581,-11.0591,-11.0605,-11.0879,-11.0604,-11.0614,-11.062,-11.1187,-11.1198,-11.1208,0,0,0,0,0,0,-11.0443,-11.0468,-11.0657,-11.0557,-11.0577,-11.0535,-11.0601,-11.0589,-11.0622,-11.0593,-11.0583,-11.0568,-11.0574,-11.059,-11.0751,-11.0879,-11.0618,-11.0628,-11.1176,-11.119,-11.1203,-11.1434,0,0,0,0,0,0,-11.0436,-11.0467,-11.0558,-11.056,-11.0583,-11.0805,-11.0609,-11.0596,-11.0641,-11.062,-11.0631,-11.0624,-11.0569,-11.0737,-11.0761,-11.0888,-11.0636,-11.1164,-11.1182,-11.1198,-11.1415,-11.1454,-11.1488,0,0,0,0,0,-11.0426,-11.0621,-11.0564,-11.0589,-11.0696,-11.0813,-11.0826,-11.0759,-11.0652,-11.0742,-11.0723,-11.0624,-11.0862,-11.0755,-11.0781,-11.0913,-11.1155,-11.1177,-11.1197,-11.1398,-11.1446,-11.1487,0,0,0,0,0,0,-11.0633,-11.0619,-11.0556,-11.0757,-11.0788,-11.078,-11.0891,-11.0813,-11.0873,-11.0851,-11.0764,-11.0768,-11.0944,-11.0945,-11.0826,-11.1142,-11.099,-11.1017,-11.1134,-11.1179,-11.1215,-11.121,-11.0644,0,0,0,0,0,-11.0703,-11.08,-11.0782,-11.0961,-11.098,-11.0934,-11.0982,-11.0929,-11.0956,-11.0967,-11.096,-11.099,-11.107,-11.1126,-11.1199,-11.1415,-11.1413,-11.1519,-11.1556,-11.1586,-11.1609,-11.172,-11.1766,-11.1277,-11.1276,-11.1276,0,0,-11.0846,-11.0851,-11.0917,-11.1003,-11.102,-11.1121,-11.0946,-11.106,-11.1133,-11.0984,-11.1135,-11.1132,-11.1158,-11.1348,-11.143,-11.1354,-11.1744,-11.1613,-11.1637,-11.1643,-11.1746,-11.1793,-11.1834,-11.1291,-11.1288,-11.1286,0,0,-11.1158,-11.1174,-11.1323,-11.1344,-11.1373,-11.1341,-11.1377,-11.1382,-11.1374,-11.1524,-11.1414,-11.15,-11.1642,-11.1665,-11.1695,-11.2017,-11.1927,-11.2044,-11.2233,-11.2343,-11.2381,-11.2415,-11.2526,-11.2567,-11.2068,-11.2069,-11.2069,0,-11.1332,-11.1481,-11.1409,-11.1531,-11.1571,-11.1442,-11.1591,-11.1615,-11.1667,-11.1696,-11.161,-11.1785,-11.1795,-11.1985,-11.2064,-11.2095,-11.2131,-11.204,-11.2382,-11.2415,-11.2445,-11.255,-11.2593,-11.2082,-11.2081,-11.2079,-11.2078,0,-11.1692,-11.1797,-11.1914,-11.1967,-11.202,-11.2156,-11.2102,-11.2165,-11.2108,-11.2084,-11.2238,-11.2245,-11.2316,-11.2359,-11.2303,-11.2542,-11.2493,-11.2397,-11.2242,-11.2507,-11.2604,-11.2644,-11.2102,-11.2097,-11.2093,-11.2089,0,0,-11.2133,-11.2146,-11.2189,-11.2211,-11.2234,-11.2312,-11.2442,-11.2512,-11.2566,-11.2606,-11.271,-11.2834,-11.2744,-11.2779,-11.2725,-11.2822,-11.3072,-11.2713,-11.2712,-11.2776,-11.3332,-11.3401,-11.3449,-11.3015,-11.3022,-11.3028,-11.3328,0,-11.2437,-11.2657,-11.2597,-11.2817,-11.2911,-11.2791,-11.2903,-11.2928,-11.291,-11.2986,-11.2966,-11.3054,-11.2931,-11.2951,-11.3042,-11.3023,-11.3182,-11.3001,-11.3107,-11.3112,-11.31,-11.35,-11.3574,-11.3856,-11.3366,-11.3372,-11.3377,0,-11.282,-11.2875,-11.3105,-11.3111,-11.3148,-11.325,-11.3308,-11.3384,-11.341,-11.339,-11.343,-11.3356,-11.3481,-11.3329,-11.3498,-11.3376,-11.3416,-11.3414,-11.3423,-11.3427,-11.3257,-11.3511,-11.3945,-11.3986,-11.3437,-11.3432,-11.3428,0,-11.3113,-11.3246,-11.3399,-11.3422,-11.3434,-11.3508,-11.3516,-11.3533,-11.3579,-11.3631,-11.3659,-11.3726,-11.3761,-11.3813,-11.3758,-11.3654,-11.3935,-11.3779,-11.3919,-11.392,-11.3979,-11.3976,-11.4422,-11.4014,-11.4013,-11.4012,-11.4012,0,-11.3456,-11.36,-11.3531,-11.3625,-11.3783,-11.3712,-11.3869,-11.3863,-11.388,-11.3969,-11.3871,-11.3957,-11.3882,-11.3961,-11.392,-11.4064,-11.4082,-11.4067,-11.4053,-11.4073,-11.4075,-11.4095,-11.4072,-11.4024,-11.4021,-11.4019,-11.4017,0,-11.3809,-11.3769,-11.3928,-11.3926,-11.3929,-11.4045,-11.4043,-11.4129,-11.4105,-11.4219,-11.4242,-11.4204,-11.4291,-11.4243,-11.4334,-11.4306,-11.4492,-11.4454,-11.4483,-11.4471,-11.4612,-11.4598,-11.5084,-11.5142,-11.4701,-11.4705,-11.4709,0,-11.4028,-11.4136,-11.4146,-11.42,-11.4215,-11.4302,-11.4348,-11.4283,-11.4335,-11.4373,-11.4454,-11.4534,-11.4593,-11.4738,-11.4718,-11.4786,-11.4746,-11.4912,-11.4755,-11.4771,-11.4743,-11.4735,-11.4744,-11.4942,-11.4947,-11.4951,-11.4955,0,-11.4419,-11.4394,-11.4466,-11.4531,-11.4589,-11.4637,-11.4676,-11.4726,-11.4661,-11.4724,-11.4813,-11.4859,-11.4952,-11.5031,-11.5089,-11.5095,-11.5014,-11.5005,-11.504,-11.5059,-11.5069,-11.5061,-11.4564,-11.4993,-11.4989,-11.4986,-11.4984,-11.4982,-11.4708,-11.4798,-11.4819,-11.4901,-11.4924,-11.4964,-11.5043,-11.503,-11.5103,-11.5173,-11.5131,-11.5235,-11.5256,-11.5326,-11.5344,-11.5422,-11.5356,-11.5408,-11.542,-11.5433,-11.545,-11.5062,-11.5434,-11.5432,-11.5431,-11.543,-11.543,0,-11.5091,-11.5099,-11.5176,-11.5234,-11.5299,-11.5219,-11.5259,-11.5317,-11.541,-11.5438,-11.5499,-11.56,-11.5676,-11.5663,-11.5731,-11.5797,-11.5761,-11.5817,-11.5809,-11.5811,-11.5508,-11.5468,-11.5844,-11.5844,-11.5844,-11.5844,-11.5844,-11.5844,-11.5297,-11.5443,-11.5421,-11.5577,-11.5583,-11.5685,-11.5714,-11.5748,-11.577,-11.5888,-11.5951,-11.5942,-11.5953,-11.6022,-11.6087,-11.6081,-11.6109,-11.6178,-11.6158,-11.5874,-11.5833,-11.5793,-11.5756,-11.6186,-11.6186,-11.6453,-11.6456,-11.6458]},{"header":{"parameterUnit":"m.s-1","parameterCategory":1,"la1":30.2991,"la2":30.254,"lo1":-89.0895,"lo2":-89.0444,"dy":0.0017,"dx":0.0017,"nx":28,"ny":28,"refTime":"2024-06-17T03:00:00:Z","depth":0,"parameterNumber":3,"parameterNumberName":"V-component_of_WINDS"},"data":[0,0,0,0,0,0,0,0,0,0,0,0,0,0,0,0,0,0,0,0,0,0,0,0,0,0,0,0,0,0,0,0,0,0,0,0,0,0,0,0,0,0,0,0,0,0,0,0,0,0,0,0,0,0,0,0,0,0,1.4291,1.4292,0,1.4381,1.4383,1.4384,1.4429,1.4429,1.4429,1.4429,1.4519,1.4521,1.4523,0,0,0,0,0,0,0,0,0,0,0,0,0,1.4157,1.4159,1.4291,1.4292,1.4293,1.4381,1.4383,1.4384,1.4429,1.4429,1.4429,1.4429,1.4518,1.4521,1.4523,0,0,0,0,0,0,0,0,0,0,0,0,0,1.4228,1.416,1.4291,1.4327,1.4331,1.4381,1.4383,1.4384,1.4429,1.4429,1.4429,1.4429,1.4517,1.452,1.4524,1.4544,0,0,1.4534,1.4536,0,0,0,0,0,0,0,0,1.4224,1.4233,1.432,1.4324,1.4329,1.4394,1.4368,1.4438,1.4429,1.4392,1.4429,1.4429,1.4477,1.4484,1.45,1.4549,1.4552,1.4535,1.4537,1.4538,1.4539,0,0,0,0,0,0,0,1.4219,1.4229,1.4327,1.4321,1.4327,1.4338,1.4348,1.4381,1.4433,1.4395,1.4398,1.4409,1.4479,1.4497,1.4503,1.4554,1.4535,1.4538,1.454,1.4541,1.4625,1.4626,0,0,0,0,0,0,1.4208,1.4224,1.4324,1.433,1.4275,1.434,1.4352,1.4373,1.4433,1.4442,1.4409,1.441,1.4491,1.4499,1.4506,1.4536,1.4538,1.4542,1.4544,1.4625,1.4626,1.4626,0,0,0,0,0,0,1.4205,1.4217,1.432,1.4278,1.4292,1.4342,1.4366,1.4375,1.4393,1.4443,1.4452,1.4417,1.4491,1.4501,1.4535,1.4539,1.4543,1.4547,1.4625,1.4625,1.4626,1.4594,0,0,0,0,0,0,1.4201,1.4215,1.4224,1.4278,1.4294,1.4348,1.4367,1.4377,1.4399,1.4402,1.4454,1.4462,1.4492,1.453,1.4539,1.4544,1.4549,1.4625,1.4625,1.4626,1.4594,1.4593,1.4591,0,0,0,0,0,1.4196,1.421,1.4224,1.4236,1.4306,1.4348,1.4357,1.4393,1.4399,1.4408,1.4441,1.446,1.4538,1.4533,1.4543,1.455,1.4625,1.4625,1.4625,1.4595,1.4593,1.4591,0,0,0,0,0,0,1.4153,1.4218,1.4234,1.4266,1.4301,1.4356,1.4368,1.4389,1.4422,1.4424,1.4465,1.4477,1.4507,1.4532,1.4526,1.4574,1.4583,1.4586,1.4557,1.4555,1.4553,1.4547,1.4552,0,0,0,0,0,1.4148,1.4177,1.4232,1.4255,1.4272,1.4317,1.4336,1.4361,1.4399,1.4414,1.4449,1.4484,1.4517,1.4537,1.457,1.4599,1.4611,1.4608,1.4607,1.4605,1.4606,1.4625,1.4625,1.4627,1.4627,1.4627,0,0,1.4136,1.4175,1.4191,1.4247,1.4278,1.4307,1.4329,1.4359,1.4381,1.4418,1.4453,1.448,1.4523,1.4555,1.457,1.4576,1.4609,1.4605,1.4604,1.4606,1.4625,1.4625,1.4625,1.4627,1.4627,1.4627,0,0,1.413,1.4162,1.4186,1.4217,1.4263,1.4294,1.4299,1.4351,1.4371,1.4407,1.4436,1.4463,1.4518,1.4548,1.457,1.4578,1.4598,1.4587,1.4578,1.4596,1.4596,1.4596,1.4599,1.46,1.4589,1.4588,1.4588,0,1.4109,1.4156,1.4195,1.4224,1.4249,1.4285,1.431,1.4337,1.4391,1.4407,1.4413,1.4484,1.4515,1.4556,1.4558,1.4574,1.4582,1.4581,1.4593,1.4593,1.4594,1.4598,1.4599,1.4587,1.4587,1.4587,1.4587,0,1.4129,1.4161,1.4174,1.4228,1.4253,1.428,1.4323,1.4344,1.4367,1.4396,1.4433,1.4472,1.4514,1.4526,1.4547,1.457,1.4572,1.4585,1.4595,1.4591,1.4596,1.4598,1.4585,1.4585,1.4586,1.4586,0,0,1.4097,1.4174,1.4178,1.4203,1.4259,1.4284,1.4312,1.4355,1.4373,1.4409,1.4435,1.4481,1.4495,1.452,1.4545,1.4561,1.4566,1.4572,1.4574,1.457,1.4594,1.4585,1.4586,1.458,1.458,1.4581,1.4591,0,1.4099,1.4153,1.419,1.4229,1.426,1.4296,1.4321,1.4358,1.4387,1.4417,1.4448,1.4481,1.4495,1.4511,1.4528,1.4562,1.4572,1.4562,1.4604,1.4605,1.4592,1.4588,1.4577,1.4585,1.4593,1.4593,1.4594,0,1.4109,1.4146,1.4189,1.4243,1.4257,1.4279,1.4322,1.435,1.4393,1.4413,1.4442,1.4469,1.4501,1.4509,1.4554,1.4546,1.4566,1.4585,1.4586,1.4591,1.4599,1.4593,1.4588,1.459,1.4597,1.4596,1.4596,0,1.4082,1.4143,1.4178,1.4198,1.4261,1.4276,1.4303,1.4346,1.437,1.4407,1.4424,1.4463,1.4485,1.4516,1.4553,1.4555,1.4594,1.4605,1.4612,1.4611,1.4618,1.4617,1.4616,1.463,1.463,1.463,1.463,0,1.4081,1.4106,1.4167,1.4188,1.4217,1.426,1.4287,1.4317,1.4355,1.4383,1.4416,1.4441,1.4488,1.4519,1.4548,1.4582,1.4591,1.4608,1.4615,1.4605,1.4603,1.4618,1.4619,1.4631,1.463,1.463,1.463,0,1.4056,1.4098,1.4137,1.4195,1.421,1.4229,1.4279,1.4301,1.4332,1.4367,1.4377,1.4426,1.4464,1.4505,1.4556,1.4575,1.4608,1.4618,1.4594,1.4598,1.4603,1.4602,1.4612,1.4616,1.4627,1.4627,1.4626,0,1.4052,1.4073,1.4134,1.4155,1.4182,1.4215,1.4241,1.4284,1.4309,1.436,1.4376,1.4417,1.4452,1.4511,1.4551,1.4591,1.4603,1.4604,1.4609,1.4598,1.4603,1.4602,1.4605,1.4601,1.4601,1.4601,1.4601,0,1.4042,1.4063,1.4098,1.4142,1.4171,1.4207,1.4244,1.426,1.431,1.4336,1.4377,1.4404,1.4458,1.4498,1.4543,1.4571,1.4594,1.4599,1.4603,1.4593,1.4578,1.4587,1.4589,1.4598,1.4599,1.4599,1.4599,1.4599,1.4029,1.4049,1.4096,1.4135,1.4168,1.4202,1.4226,1.4262,1.4296,1.4344,1.4368,1.4408,1.4452,1.4515,1.4542,1.4574,1.4581,1.4587,1.4588,1.4589,1.4587,1.4573,1.4583,1.4583,1.4583,1.4583,1.4583,0,1.4021,1.4053,1.4089,1.4141,1.4172,1.4193,1.4235,1.426,1.4295,1.4335,1.4369,1.4416,1.4456,1.45,1.4543,1.4561,1.4573,1.457,1.457,1.4576,1.4578,1.457,1.456,1.456,1.456,1.456,1.456,1.456,1.402,1.4057,1.4083,1.4136,1.4168,1.4209,1.4232,1.4264,1.4296,1.4348,1.4382,1.4411,1.4452,1.4499,1.4537,1.4549,1.4563,1.4558,1.4573,1.4574,1.4575,1.4577,1.4571,1.456,1.456,1.4569,1.4569,1.4569]}]]